This is the latest recevied weather packets stored in our database for station/object OH6HPS. If no packets are shown the sender has not sent any weather packets the latest 10 day(s).
| Time | Temp. | Humidity | Pressure | Rain* | Wind** | Luminosity | Snow |
|---|---|---|---|---|---|---|---|
| 1777867602 | 5.56° C | 72% | 1005.5 hPa | 0 mm | - | 49 W/m² | - |
| 1777867001 | 5° C | 72% | 1005.4 hPa | 0 mm | - | 44 W/m² | - |
| 1777866400 | 5° C | 74% | 1005.5 hPa | 0 mm | - | 48 W/m² | - |
| 1777865801 | 4.44° C | 76% | 1005.4 hPa | 0 mm | - | 51 W/m² | - |
| 1777865202 | 4.44° C | 77% | 1005.5 hPa | 0 mm | - | 46 W/m² | - |
| 1777864599 | 3.89° C | 76% | 1005.6 hPa | 0 mm | - | 27 W/m² | - |
| 1777863999 | 3.89° C | 74% | 1005.7 hPa | 0 mm | - | 19 W/m² | - |
| 1777863398 | 3.89° C | 74% | 1005.8 hPa | 0 mm | - | 23 W/m² | - |
| 1777862796 | 4.44° C | 73% | 1005.9 hPa | 0 mm | - | 16 W/m² | - |
| 1777862197 | 4.44° C | 71% | 1006 hPa | 0 mm | - | 11 W/m² | - |
| 1777861596 | 5° C | 71% | 1006.1 hPa | 0 mm | - | 5 W/m² | - |
| 1777860997 | 5° C | 71% | 1006 hPa | 0 mm | - | 0 W/m² | - |
| 1777860396 | 5° C | 70% | 1006.1 hPa | 0 mm | - | 0 W/m² | - |
| 1777859795 | 5° C | 70% | 1006.3 hPa | 0 mm | - | 0 W/m² | - |
| 1777859196 | 5.56° C | 70% | 1006.3 hPa | 0 mm | - | 0 W/m² | - |
| 1777858596 | 5.56° C | 69% | 1006.5 hPa | 0 mm | - | 0 W/m² | - |
| 1777857995 | 5.56° C | 70% | 1006.4 hPa | 0 mm | - | 0 W/m² | - |
| 1777857395 | 6.11° C | 69% | 1006.5 hPa | 0 mm | - | 0 W/m² | - |
| 1777856795 | 6.11° C | 67% | 1006.6 hPa | 0 mm | - | 0 W/m² | - |
| 1777856196 | 6.11° C | 68% | 1006.7 hPa | 0 mm | - | 0 W/m² | - |
| 1777855596 | 6.11° C | 65% | 1006.7 hPa | 0 mm | - | 0 W/m² | - |
| 1777854994 | 6.67° C | 64% | 1006.8 hPa | 0 mm | - | 0 W/m² | - |
| 1777854394 | 6.67° C | 65% | 1006.8 hPa | 0 mm | - | 0 W/m² | - |
| 1777853794 | 6.67° C | 66% | 1007 hPa | 0 mm | - | 0 W/m² | - |
| 1777853194 | 6.67° C | 65% | 1007 hPa | 0 mm | - | 0 W/m² | - |
* Rain latest hour (hover to see other rain measurements)
** Current wind speed in m/s (hover to see current wind gust speed)